Location: *
(50.6089°N, 2.2719°E)
Time: 21:04:45
(UTC+00:00)

STARLINK-46 - Pass Details

Date: 18 October 2019
Orbit: 357 x 393 km, 53.0° (Epoch: 17 November)

Event Time Altitude Azimuth Distance (km) Brightness Sun altitude
Rises 18:08:43 0° 290° (WNW) 2,240 8.2 -12.7°
Reaches altitude 10° 18:10:47 10° 284° (WNW) 1,394 7.0 -13.0°
Maximum altitude 18:13:48 48° 209° (SSW) 508 3.6 -13.5°
Enters shadow 18:15:52 18° 139° (SE) 1,025 4.6 -13.8°
